QPF
0.00 0.00 0.00 0.01 0.01 0.01 0.01 0.01 0.00 0.00 0.00 0.00 0.00 0.01 0.01 0.01 0.01 0.01 0.02 0.02 0.03 0.03 0.03 0.03 0.04 0.04 0.05 0.06 0.07 0.07 0.05 0.04 0.04 0.02 0.01 0.01 0.02 0.03 0.04 0.04 0.04 0.04 0.03
0.00 0.00 0.00 0.01 0.01 0.01 0.01 0.01 0.01 0.01 0.01 0.01 0.00 0.00 0.01 0.01 0.01 0.01 0.01 0.02 0.02 0.03 0.03 0.03 0.03 0.03 0.04 0.05 0.07 0.07 0.05 0.04 0.04 0.03 0.02 0.02 0.02 0.02 0.03 0.05 0.05 0.05 0.03
0.00 0.00 0.00 0.01 0.01 0.00 0.01 0.01 0.01 0.01 0.01 0.01 0.01 0.00 0.01 0.01 0.01 0.01 0.01 0.02 0.02 0.02 0.03 0.02 0.03 0.03 0.04 0.04 0.06 0.07 0.06 0.04 0.04 0.04 0.03 0.03 0.03 0.03 0.04 0.04 0.04 0.05 0.04
0.00 0.00 0.00 0.01 0.00 0.00 0.00 0.01 0.01 0.02 0.01 0.01 0.01 0.01 0.01 0.01 0.01 0.01 0.01 0.01 0.02 0.02 0.02 0.02 0.02 0.03 0.04 0.04 0.05 0.06 0.06 0.05 0.04 0.04 0.04 0.04 0.05 0.05 0.05 0.05 0.06 0.06 0.05
0.00 0.00 0.00 0.01 0.01 0.01 0.00 0.00 0.01 0.02 0.02 0.01 0.01 0.01 0.01 0.01 0.01 0.01 0.01 0.02 0.02 0.02 0.02 0.02 0.02 0.02 0.03 0.04 0.05 0.05 0.05 0.06 0.05 0.05 0.05 0.04 0.04 0.05 0.05 0.06 0.06 0.07 0.08
0.00 0.00 0.00 0.01 0.01 0.01 0.01 0.00 0.01 0.01 0.02 0.03 0.02 0.01 0.01 0.01 0.01 0.02 0.02 0.03 0.03 0.03 0.02 0.02 0.02 0.02 0.03 0.03 0.04 0.04 0.05 0.06 0.06 0.06 0.05 0.05 0.04 0.04 0.04 0.05 0.06 0.07 0.09
0.01 0.01 0.01 0.01 0.01 0.01 0.01 0.00 0.00 0.01 0.02 0.03 0.02 0.02 0.01 0.01 0.01 0.01 0.02 0.02 0.03 0.03 0.02 0.02 0.02 0.02 0.03 0.03 0.04 0.04 0.04 0.05 0.06 0.06 0.06 0.05 0.05 0.05 0.05 0.06 0.07 0.08 0.08
0.01 0.01 0.01 0.01 0.02 0.02 0.01 0.01 0.00 0.01 0.01 0.02 0.02 0.02 0.01 0.01 0.01 0.01 0.01 0.02 0.02 0.02 0.02 0.02 0.02 0.02 0.03 0.03 0.04 0.04 0.04 0.04 0.04 0.05 0.05 0.05 0.04 0.05 0.06 0.07 0.07 0.08 0.08
0.01 0.01 0.01 0.01 0.02 0.03 0.02 0.01 0.01 0.01 0.01 0.01 0.02 0.02 0.02 0.01 0.01 0.01 0.02 0.02 0.02 0.02 0.02 0.02 0.02 0.02 0.03 0.04 0.05 0.04 0.04 0.04 0.04 0.04 0.05 0.05 0.06 0.06 0.07 0.08 0.09 0.10 0.11
0.02 0.01 0.01 0.01 0.01 0.02 0.03 0.02 0.01 0.01 0.01 0.01 0.02 0.02 0.02 0.02 0.01 0.01 0.02 0.02 0.02 0.02 0.02 0.02 0.02 0.03 0.04 0.05 0.05 0.04 0.04 0.03 0.03 0.04 0.04 0.04 0.04 0.05 0.06 0.07 0.08 0.09 0.10
0.02 0.01 0.01 0.01 0.01 0.01 0.02 0.02 0.02 0.01 0.01 0.01 0.02 0.02 0.03 0.02 0.02 0.02 0.02 0.02 0.02 0.03 0.02 0.02 0.02 0.03 0.03 0.04 0.04 0.04 0.04 0.04 0.04 0.05 0.05 0.05 0.04 0.04 0.04 0.05 0.06 0.07 0.10
0.01 0.01 0.01 0.01 0.01 0.01 0.01 0.02 0.02 0.02 0.02 0.02 0.02 0.02 0.03 0.02 0.02 0.03 0.02 0.02 0.03 0.04 0.03 0.02 0.02 0.03 0.03 0.04 0.04 0.04 0.04 0.04 0.04 0.05 0.05 0.05 0.05 0.04 0.04 0.05 0.05 0.06 0.08
0.01 0.01 0.01 0.01 0.01 0.01 0.01 0.02 0.02 0.02 0.02 0.02 0.02 0.02 0.02 0.02 0.02 0.03 0.03 0.03 0.03 0.04 0.03 0.03 0.03 0.03 0.03 0.04 0.04 0.04 0.04 0.04 0.04 0.05 0.04 0.04 0.04 0.04 0.05 0.05 0.06 0.06 0.07
0.01 0.01 0.01 0.01 0.01 0.01 0.01 0.01 0.02 0.03 0.03 0.03 0.03 0.02 0.02 0.02 0.02 0.02 0.02 0.02 0.02 0.02 0.03 0.03 0.03 0.03 0.03 0.04 0.04 0.04 0.04 0.03 0.04 0.04 0.04 0.04 0.04 0.05 0.06 0.06 0.06 0.06 0.07
0.01 0.01 0.01 0.01 0.01 0.02 0.02 0.02 0.02 0.03 0.04 0.05 0.05 0.04 0.03 0.03 0.03 0.03 0.04 0.04 0.03 0.03 0.03 0.03 0.03 0.03 0.03 0.03 0.03 0.03 0.03 0.03 0.03 0.03 0.04 0.04 0.04 0.05 0.05 0.06 0.06 0.06 0.06
0.01 0.01 0.01 0.01 0.01 0.01 0.01 0.01 0.02 0.02 0.02 0.03 0.03 0.04 0.04 0.04 0.03 0.03 0.03 0.03 0.03 0.03 0.04 0.04 0.04 0.03 0.03 0.03 0.03 0.02 0.02 0.02 0.02 0.03 0.03 0.03 0.04 0.04 0.05 0.05 0.06 0.06 0.06
0.01 0.01 0.01 0.01 0.01 0.01 0.01 0.01 0.01 0.01 0.01 0.01 0.01 0.02 0.02 0.03 0.03 0.03 0.02 0.02 0.02 0.02 0.03 0.03 0.03 0.03 0.03 0.02 0.02 0.02 0.02 0.02 0.02 0.02 0.03 0.03 0.03 0.04 0.04 0.05 0.06 0.05 0.05
0.00 0.01 0.01 0.01 0.01 0.01 0.01 0.01 0.01 0.01 0.01 0.01 0.01 0.01 0.01 0.02 0.02 0.02 0.02 0.02 0.02 0.02 0.02 0.03 0.03 0.03 0.03 0.03 0.03 0.03 0.02 0.02 0.02 0.02 0.02 0.02 0.03 0.03 0.04 0.04 0.05 0.05 0.05
0.00 0.00 0.00 0.01 0.01 0.01 0.01 0.01 0.01 0.01 0.01 0.01 0.00 0.00 0.01 0.01 0.01 0.01 0.01 0.01 0.02 0.02 0.02 0.02 0.03 0.03 0.03 0.04 0.04 0.03 0.03 0.02 0.02 0.02 0.02 0.02 0.02 0.03 0.04 0.04 0.04 0.04 0.05
0.00 0.00 0.00 0.00 0.00 0.00 0.00 0.01 0.01 0.01 0.01 0.01 0.01 0.01 0.01 0.01 0.01 0.01 0.01 0.01 0.02 0.02 0.02 0.02 0.02 0.03 0.03 0.03 0.03 0.03 0.03 0.03 0.02 0.02 0.02 0.02 0.02 0.03 0.03 0.03 0.04 0.04 0.04
0.00 0.00 0.00 0.00 0.00 0.00 0.00 0.00 0.01 0.01 0.01 0.01 0.01 0.01 0.02 0.02 0.01 0.01 0.01 0.01 0.02 0.02 0.02 0.02 0.02 0.02 0.03 0.03 0.03 0.02 0.03 0.02 0.02 0.02 0.02 0.02 0.02 0.02 0.02 0.03 0.03 0.04 0.04
0.00 0.00 0.00 0.00 0.00 0.00 0.00 0.00 0.00 0.00 0.00 0.00 0.00 0.00 0.01 0.01 0.01 0.01 0.01 0.01 0.02 0.02 0.02 0.02 0.02 0.02 0.02 0.02 0.02 0.02 0.02 0.02 0.02 0.02 0.02 0.02 0.02 0.02 0.02 0.03 0.03 0.03 0.04
0.01 0.01 0.01 0.00 0.00 0.00 0.00 0.00 0.00 0.00 0.00 0.00 0.00 0.01 0.01 0.01 0.01 0.01 0.01 0.01 0.01 0.01 0.01 0.01 0.02 0.01 0.01 0.02 0.02 0.02 0.03 0.02 0.02 0.02 0.03 0.03 0.02 0.02 0.02 0.03 0.03 0.03 0.04
0.01 0.01 0.01 0.01 0.01 0.01 0.01 0.01 0.00 0.00 0.00 0.00 0.01 0.01 0.01 0.01 0.01 0.01 0.01 0.01 0.01 0.01 0.01 0.01 0.01 0.01 0.01 0.01 0.01 0.02 0.02 0.02 0.02 0.03 0.03 0.03 0.03 0.02 0.03 0.03 0.03 0.03 0.04
0.01 0.01 0.01 0.01 0.01 0.01 0.01 0.00 0.00 0.00 0.00 0.00 0.01 0.01 0.01 0.01 0.01 0.01 0.01 0.01 0.01 0.01 0.01 0.01 0.01 0.01 0.01 0.01 0.01 0.01 0.01 0.02 0.02 0.03 0.04 0.04 0.03 0.03 0.03 0.03 0.03 0.03 0.04
0.01 0.01 0.01 0.01 0.01 0.01 0.00 0.00 0.00 0.00 0.00 0.00 0.01 0.01 0.01 0.01 0.01 0.01 0.01 0.01 0.01 0.01 0.01 0.01 0.01 0.01 0.01 0.01 0.01 0.01 0.01 0.02 0.02 0.02 0.04 0.04 0.04 0.04 0.03 0.03 0.03 0.03 0.04
MSLP
1025.96 1026.67 1027.37 1028.03 1028.64 1029.18 1029.66 1030.09 1030.47 1030.83 1031.15 1031.45 1031.71 1031.92 1032.06 1032.14 1032.14 1032.09 1032.00 1031.90 1031.81 1031.75 1031.72 1031.72 1031.73 1031.73 1031.69 1031.59 1031.43 1031.19 1030.90 1030.56 1030.20 1029.83 1029.48 1029.16 1028.85 1028.56 1028.28 1027.99 1027.69 1027.39 1027.08
1025.58 1026.32 1027.05 1027.73 1028.36 1028.92 1029.41 1029.85 1030.24 1030.60 1030.92 1031.21 1031.45 1031.64 1031.76 1031.81 1031.79 1031.72 1031.60 1031.47 1031.35 1031.25 1031.19 1031.15 1031.13 1031.10 1031.05 1030.96 1030.82 1030.62 1030.38 1030.10 1029.81 1029.52 1029.23 1028.95 1028.68 1028.42 1028.15 1027.87 1027.58 1027.27 1026.96
1025.19 1025.98 1026.74 1027.45 1028.08 1028.65 1029.14 1029.58 1029.97 1030.31 1030.62 1030.89 1031.12 1031.28 1031.38 1031.41 1031.37 1031.28 1031.14 1030.99 1030.85 1030.72 1030.62 1030.54 1030.48 1030.42 1030.35 1030.25 1030.13 1029.96 1029.77 1029.56 1029.34 1029.11 1028.89 1028.66 1028.44 1028.21 1027.97 1027.70 1027.42 1027.13 1026.82
1024.81 1025.65 1026.44 1027.16 1027.81 1028.38 1028.87 1029.30 1029.67 1030.00 1030.29 1030.54 1030.73 1030.88 1030.96 1030.97 1030.92 1030.81 1030.67 1030.51 1030.34 1030.19 1030.05 1029.94 1029.84 1029.74 1029.65 1029.53 1029.41 1029.27 1029.11 1028.95 1028.78 1028.62 1028.45 1028.28 1028.10 1027.90 1027.69 1027.45 1027.18 1026.90 1026.61
1024.49 1025.36 1026.17 1026.91 1027.56 1028.13 1028.62 1029.03 1029.39 1029.70 1029.97 1030.19 1030.36 1030.48 1030.54 1030.54 1030.48 1030.37 1030.22 1030.05 1029.87 1029.69 1029.52 1029.37 1029.23 1029.09 1028.96 1028.83 1028.69 1028.55 1028.41 1028.28 1028.15 1028.03 1027.90 1027.77 1027.62 1027.45 1027.26 1027.05 1026.81 1026.55 1026.28
1024.27 1025.16 1025.99 1026.73 1027.38 1027.94 1028.42 1028.83 1029.18 1029.47 1029.71 1029.91 1030.06 1030.15 1030.19 1030.17 1030.09 1029.97 1029.81 1029.63 1029.43 1029.23 1029.03 1028.83 1028.65 1028.47 1028.29 1028.12 1027.96 1027.81 1027.68 1027.55 1027.44 1027.33 1027.23 1027.11 1026.99 1026.85 1026.68 1026.49 1026.28 1026.05 1025.82
1024.21 1025.10 1025.92 1026.66 1027.30 1027.86 1028.34 1028.74 1029.07 1029.35 1029.57 1029.75 1029.86 1029.92 1029.93 1029.88 1029.78 1029.64 1029.46 1029.25 1029.03 1028.79 1028.55 1028.31 1028.08 1027.85 1027.62 1027.41 1027.22 1027.05 1026.89 1026.76 1026.64 1026.54 1026.44 1026.33 1026.22 1026.09 1025.94 1025.78 1025.60 1025.41 1025.23
1024.37 1025.23 1026.03 1026.74 1027.37 1027.92 1028.39 1028.78 1029.11 1029.37 1029.57 1029.71 1029.79 1029.81 1029.78 1029.69 1029.55 1029.36 1029.14 1028.90 1028.64 1028.36 1028.07 1027.78 1027.49 1027.21 1026.94 1026.69 1026.45 1026.25 1026.07 1025.92 1025.79 1025.67 1025.57 1025.47 1025.36 1025.24 1025.11 1024.97 1024.83 1024.69 1024.55
1024.73 1025.55 1026.30 1026.99 1027.60 1028.13 1028.58 1028.96 1029.27 1029.51 1029.69 1029.79 1029.82 1029.79 1029.70 1029.55 1029.36 1029.12 1028.85 1028.55 1028.24 1027.91 1027.57 1027.23 1026.89 1026.56 1026.25 1025.95 1025.68 1025.44 1025.24 1025.07 1024.92 1024.80 1024.70 1024.59 1024.49 1024.38 1024.27 1024.16 1024.05 1023.95 1023.85
1025.28 1026.04 1026.74 1027.37 1027.94 1028.44 1028.87 1029.23 1029.52 1029.73 1029.86 1029.92 1029.90 1029.81 1029.65 1029.44 1029.18 1028.88 1028.55 1028.20 1027.83 1027.45 1027.07 1026.68 1026.30 1025.93 1025.57 1025.24 1024.94 1024.68 1024.46 1024.27 1024.12 1024.00 1023.89 1023.80 1023.70 1023.61 1023.52 1023.43 1023.34 1023.27 1023.21
1025.96 1026.64 1027.27 1027.85 1028.36 1028.81 1029.20 1029.52 1029.77 1029.94 1030.02 1030.03 1029.95 1029.79 1029.57 1029.29 1028.97 1028.61 1028.22 1027.83 1027.41 1027.00 1026.58 1026.16 1025.75 1025.35 1024.97 1024.61 1024.30 1024.02 1023.79 1023.60 1023.45 1023.33 1023.24 1023.15 1023.07 1022.99 1022.91 1022.84 1022.77 1022.71 1022.67
1026.70 1027.29 1027.84 1028.33 1028.78 1029.17 1029.50 1029.77 1029.96 1030.08 1030.11 1030.05 1029.91 1029.69 1029.41 1029.08 1028.70 1028.30 1027.88 1027.45 1027.02 1026.58 1026.15 1025.72 1025.29 1024.88 1024.49 1024.12 1023.80 1023.52 1023.29 1023.10 1022.96 1022.85 1022.77 1022.70 1022.63 1022.57 1022.50 1022.43 1022.36 1022.30 1022.24
1027.42 1027.92 1028.37 1028.78 1029.14 1029.45 1029.71 1029.91 1030.04 1030.09 1030.06 1029.95 1029.75 1029.49 1029.16 1028.79 1028.38 1027.96 1027.53 1027.10 1026.66 1026.23 1025.81 1025.38 1024.96 1024.55 1024.16 1023.80 1023.48 1023.20 1022.97 1022.79 1022.66 1022.57 1022.50 1022.44 1022.39 1022.33 1022.26 1022.18 1022.09 1022.00 1021.90
1028.07 1028.47 1028.82 1029.13 1029.40 1029.63 1029.81 1029.93 1029.99 1029.97 1029.89 1029.72 1029.48 1029.18 1028.82 1028.44 1028.03 1027.61 1027.19 1026.78 1026.37 1025.97 1025.57 1025.17 1024.77 1024.37 1023.99 1023.64 1023.32 1023.05 1022.82 1022.65 1022.52 1022.44 1022.38 1022.33 1022.28 1022.22 1022.14 1022.04 1021.92 1021.77 1021.61
1028.62 1028.92 1029.17 1029.38 1029.56 1029.69 1029.79 1029.83 1029.82 1029.75 1029.61 1029.40 1029.13 1028.80 1028.44 1028.05 1027.65 1027.26 1026.88 1026.50 1026.14 1025.78 1025.42 1025.05 1024.68 1024.31 1023.95 1023.60 1023.29 1023.01 1022.78 1022.61 1022.48 1022.39 1022.33 1022.29 1022.24 1022.17 1022.07 1021.93 1021.76 1021.56 1021.33
1029.05 1029.26 1029.42 1029.54 1029.62 1029.68 1029.70 1029.68 1029.61 1029.48 1029.30 1029.05 1028.76 1028.42 1028.05 1027.68 1027.31 1026.95 1026.60 1026.27 1025.96 1025.65 1025.33 1025.00 1024.66 1024.31 1023.96 1023.62 1023.30 1023.02 1022.78 1022.59 1022.45 1022.36 1022.29 1022.23 1022.17 1022.08 1021.95 1021.78 1021.56 1021.30 1020.99
1029.38 1029.51 1029.59 1029.64 1029.65 1029.65 1029.61 1029.53 1029.41 1029.25 1029.02 1028.75 1028.44 1028.09 1027.72 1027.36 1027.00 1026.67 1026.36 1026.07 1025.79 1025.51 1025.24 1024.94 1024.62 1024.29 1023.95 1023.61 1023.28 1022.98 1022.73 1022.53 1022.37 1022.25 1022.17 1022.10 1022.01 1021.90 1021.75 1021.54 1021.28 1020.96 1020.60
1029.64 1029.70 1029.72 1029.72 1029.68 1029.63 1029.55 1029.44 1029.29 1029.09 1028.84 1028.54 1028.21 1027.84 1027.47 1027.10 1026.75 1026.42 1026.13 1025.85 1025.60 1025.35 1025.09 1024.81 1024.51 1024.19 1023.85 1023.50 1023.17 1022.86 1022.58 1022.36 1022.18 1022.04 1021.93 1021.84 1021.74 1021.61 1021.43 1021.20 1020.90 1020.55 1020.13
1029.84 1029.85 1029.84 1029.80 1029.74 1029.66 1029.56 1029.43 1029.26 1029.03 1028.76 1028.44 1028.07 1027.69 1027.29 1026.90 1026.53 1026.19 1025.89 1025.61 1025.35 1025.10 1024.85 1024.58 1024.28 1023.96 1023.62 1023.27 1022.93 1022.60 1022.31 1022.07 1021.87 1021.71 1021.58 1021.46 1021.34 1021.19 1020.99 1020.74 1020.43 1020.05 1019.62
1029.99 1029.97 1029.94 1029.89 1029.82 1029.74 1029.63 1029.49 1029.30 1029.06 1028.76 1028.41 1028.02 1027.60 1027.16 1026.74 1026.33 1025.96 1025.62 1025.32 1025.04 1024.77 1024.51 1024.23 1023.93 1023.61 1023.26 1022.91 1022.56 1022.23 1021.92 1021.66 1021.43 1021.25 1021.10 1020.96 1020.82 1020.65 1020.45 1020.19 1019.87 1019.49 1019.05
1030.09 1030.07 1030.03 1029.98 1029.92 1029.84 1029.73 1029.58 1029.38 1029.12 1028.80 1028.42 1027.99 1027.53 1027.05 1026.58 1026.13 1025.70 1025.32 1024.98 1024.66 1024.37 1024.08 1023.78 1023.47 1023.14 1022.79 1022.44 1022.08 1021.74 1021.42 1021.14 1020.89 1020.69 1020.51 1020.35 1020.19 1020.01 1019.79 1019.52 1019.20 1018.83 1018.40
1030.16 1030.13 1030.09 1030.05 1030.00 1029.92 1029.81 1029.66 1029.44 1029.17 1028.82 1028.41 1027.94 1027.44 1026.92 1026.40 1025.90 1025.42 1024.99 1024.60 1024.24 1023.90 1023.58 1023.26 1022.93 1022.59 1022.23 1021.87 1021.50 1021.15 1020.82 1020.51 1020.25 1020.02 1019.81 1019.62 1019.43 1019.23 1019.00 1018.73 1018.41 1018.03 1017.62
1030.19 1030.17 1030.13 1030.09 1030.04 1029.95 1029.84 1029.67 1029.44 1029.14 1028.77 1028.33 1027.84 1027.30 1026.74 1026.18 1025.64 1025.12 1024.63 1024.19 1023.79 1023.41 1023.05 1022.69 1022.34 1021.97 1021.59 1021.21 1020.82 1020.45 1020.09 1019.76 1019.46 1019.20 1018.95 1018.73 1018.51 1018.28 1018.03 1017.75 1017.42 1017.06 1016.65
1030.22 1030.19 1030.15 1030.10 1030.03 1029.93 1029.79 1029.60 1029.34 1029.02 1028.63 1028.17 1027.66 1027.10 1026.52 1025.93 1025.35 1024.79 1024.27 1023.78 1023.33 1022.90 1022.49 1022.09 1021.69 1021.28 1020.86 1020.44 1020.02 1019.61 1019.21 1018.84 1018.50 1018.19 1017.90 1017.63 1017.38 1017.12 1016.84 1016.54 1016.21 1015.85 1015.45
1030.27 1030.22 1030.16 1030.08 1029.98 1029.85 1029.67 1029.45 1029.17 1028.82 1028.41 1027.94 1027.41 1026.85 1026.25 1025.65 1025.04 1024.45 1023.89 1023.36 1022.85 1022.36 1021.89 1021.42 1020.96 1020.49 1020.02 1019.54 1019.06 1018.59 1018.14 1017.71 1017.31 1016.95 1016.61 1016.30 1016.00 1015.71 1015.41 1015.10 1014.76 1014.40 1014.01
1030.34 1030.27 1030.17 1030.06 1029.91 1029.73 1029.52 1029.26 1028.94 1028.57 1028.15 1027.67 1027.13 1026.56 1025.96 1025.34 1024.71 1024.09 1023.49 1022.90 1022.33 1021.77 1021.22 1020.67 1020.13 1019.57 1019.02 1018.46 1017.90 1017.36 1016.84 1016.34 1015.89 1015.46 1015.07 1014.72 1014.39 1014.07 1013.76 1013.44 1013.10 1012.75 1012.36
Thickness
5414 5412 5410 5407 5405 5403 5402 5400 5399 5397 5395 5393 5391 5390 5389 5388 5388 5387 5387 5387 5386 5386 5386 5387 5388 5389 5392 5394 5395 5397 5399 5402 5408 5417 5419 5422 5424 5428 5432 5435 5439 5443 5449
5403 5401 5398 5396 5394 5392 5390 5388 5386 5384 5382 5381 5379 5378 5377 5376 5376 5375 5375 5374 5374 5373 5374 5374 5375 5377 5379 5381 5382 5385 5388 5390 5393 5400 5406 5408 5411 5414 5418 5422 5426 5431 5436
5391 5389 5386 5384 5382 5380 5378 5376 5374 5372 5370 5368 5367 5366 5365 5364 5364 5363 5363 5362 5362 5362 5362 5362 5364 5364 5367 5368 5370 5373 5375 5378 5381 5385 5391 5394 5398 5401 5404 5409 5414 5419 5425
5379 5377 5374 5372 5370 5368 5366 5364 5362 5360 5358 5356 5355 5354 5353 5352 5352 5351 5351 5351 5351 5351 5351 5351 5352 5353 5355 5357 5359 5361 5364 5366 5369 5373 5377 5381 5385 5389 5391 5396 5402 5407 5414
5367 5365 5362 5360 5358 5356 5354 5352 5350 5347 5346 5344 5343 5342 5341 5340 5340 5340 5340 5340 5340 5340 5340 5341 5341 5343 5345 5347 5348 5350 5352 5354 5357 5361 5366 5369 5373 5376 5381 5385 5391 5397 5405
5356 5353 5351 5349 5346 5344 5342 5340 5337 5335 5333 5332 5331 5330 5329 5328 5329 5329 5329 5329 5329 5329 5330 5330 5331 5332 5335 5336 5338 5340 5341 5343 5346 5350 5354 5358 5364 5367 5371 5375 5380 5386 5394
5344 5342 5339 5337 5334 5332 5330 5327 5325 5323 5321 5320 5319 5318 5317 5317 5317 5318 5318 5318 5317 5317 5318 5319 5321 5322 5324 5325 5327 5330 5332 5335 5337 5340 5344 5348 5353 5358 5362 5366 5371 5376 5384
5331 5329 5326 5323 5321 5319 5317 5315 5312 5311 5309 5307 5307 5306 5306 5306 5306 5307 5308 5307 5306 5306 5307 5308 5309 5310 5311 5314 5317 5320 5322 5325 5328 5331 5336 5340 5344 5348 5353 5358 5362 5366 5373
5318 5316 5313 5311 5309 5306 5304 5302 5300 5298 5297 5296 5295 5295 5295 5295 5295 5296 5297 5296 5296 5296 5296 5297 5298 5300 5302 5305 5307 5309 5313 5316 5318 5322 5326 5331 5335 5340 5343 5347 5351 5356 5363
5305 5303 5301 5298 5296 5294 5292 5290 5288 5287 5286 5285 5285 5284 5284 5284 5284 5285 5286 5285 5285 5286 5286 5287 5288 5290 5293 5295 5297 5299 5303 5307 5309 5313 5316 5320 5325 5330 5335 5338 5343 5347 5352
5293 5291 5289 5286 5284 5282 5280 5278 5277 5276 5274 5274 5274 5274 5273 5273 5273 5274 5274 5273 5274 5275 5276 5277 5278 5280 5283 5285 5288 5290 5293 5296 5299 5302 5306 5311 5316 5321 5325 5329 5334 5338 5342
5282 5279 5277 5275 5273 5272 5269 5267 5265 5264 5262 5261 5261 5262 5262 5262 5262 5262 5263 5263 5264 5265 5266 5267 5268 5271 5273 5276 5278 5281 5284 5286 5288 5292 5296 5300 5305 5310 5314 5319 5324 5328 5332
5269 5267 5265 5264 5262 5260 5258 5256 5254 5252 5250 5250 5250 5250 5250 5250 5250 5251 5252 5253 5254 5255 5256 5257 5259 5261 5263 5265 5267 5270 5273 5275 5278 5281 5285 5289 5293 5298 5303 5308 5313 5318 5323
5257 5255 5254 5252 5251 5249 5247 5245 5243 5241 5239 5239 5239 5239 5239 5239 5239 5240 5241 5242 5244 5245 5246 5248 5250 5251 5253 5255 5257 5259 5261 5263 5266 5270 5274 5277 5282 5286 5291 5296 5301 5307 5312
5246 5244 5243 5241 5239 5237 5236 5234 5233 5231 5229 5229 5228 5228 5228 5229 5230 5232 5232 5234 5235 5236 5238 5239 5240 5241 5243 5244 5246 5248 5250 5253 5256 5259 5262 5266 5270 5275 5280 5284 5289 5294 5299
5235 5233 5231 5229 5228 5227 5225 5224 5223 5222 5222 5221 5220 5220 5220 5221 5222 5223 5224 5225 5227 5228 5229 5229 5230 5230 5232 5234 5236 5237 5240 5242 5245 5248 5252 5255 5259 5264 5268 5273 5278 5283 5288
5223 5221 5219 5218 5217 5216 5214 5213 5212 5212 5211 5211 5211 5211 5211 5212 5213 5214 5215 5217 5218 5219 5218 5218 5218 5219 5221 5222 5224 5226 5229 5232 5235 5238 5242 5245 5249 5253 5257 5263 5268 5272 5277
5212 5211 5209 5207 5206 5204 5203 5202 5201 5201 5200 5200 5201 5201 5202 5203 5204 5205 5206 5207 5207 5207 5207 5207 5207 5209 5210 5212 5214 5216 5219 5222 5225 5228 5232 5235 5239 5243 5247 5252 5257 5262 5267
5203 5201 5199 5197 5196 5195 5194 5193 5192 5191 5190 5190 5191 5192 5193 5193 5195 5195 5196 5195 5195 5195 5196 5196 5197 5199 5200 5203 5205 5207 5209 5212 5215 5218 5222 5226 5230 5233 5237 5242 5247 5253 5257
5193 5192 5191 5189 5187 5186 5185 5184 5183 5182 5181 5181 5181 5182 5183 5183 5184 5184 5184 5184 5184 5185 5186 5186 5187 5189 5191 5193 5195 5197 5200 5203 5206 5210 5213 5217 5221 5225 5229 5233 5238 5243 5248
5184 5183 5182 5180 5178 5177 5176 5175 5174 5173 5173 5172 5172 5173 5175 5174 5174 5174 5174 5174 5174 5175 5176 5177 5178 5180 5181 5184 5186 5188 5191 5194 5198 5201 5205 5209 5213 5217 5221 5225 5230 5235 5239
5175 5174 5173 5171 5170 5169 5168 5167 5166 5165 5164 5164 5165 5165 5166 5165 5164 5164 5164 5165 5165 5166 5167 5168 5170 5171 5173 5175 5178 5181 5184 5187 5190 5194 5198 5202 5206 5210 5214 5218 5222 5226 5230
5166 5165 5164 5163 5161 5161 5160 5158 5157 5157 5156 5156 5156 5156 5156 5156 5156 5156 5156 5156 5157 5158 5160 5161 5163 5164 5166 5169 5171 5174 5177 5180 5183 5187 5191 5195 5199 5203 5207 5211 5215 5219 5223
5158 5157 5156 5155 5154 5152 5152 5151 5150 5149 5149 5148 5148 5148 5147 5147 5147 5148 5148 5149 5150 5151 5153 5154 5156 5158 5160 5163 5166 5169 5171 5175 5178 5181 5185 5189 5193 5198 5201 5205 5209 5213 5217
5150 5148 5147 5146 5145 5145 5144 5144 5143 5142 5141 5141 5141 5140 5140 5139 5140 5141 5141 5142 5143 5145 5147 5149 5151 5153 5155 5158 5161 5164 5167 5171 5174 5178 5181 5185 5189 5193 5197 5200 5204 5208 5211
5141 5140 5139 5138 5138 5137 5136 5136 5136 5135 5134 5134 5133 5133 5132 5133 5133 5134 5135 5136 5138 5140 5142 5144 5146 5148 5151 5153 5157 5160 5164 5168 5171 5175 5178 5181 5185 5188 5192 5196 5199 5203 5206